| time (UTC) | temp C | wind direction | speed KPH | gust KPH | rain 1hr cm | rain 24hr cm | rain mn cm | humidity % | barometer mb |
| 20260504033524 | 10 | 130 | 4.8 | 8.0 | 0.00 | 0.00 | 0.00 | 68 | 1023.5 |
| 20260504032520 | 10 | 134 | 4.8 | 9.7 | 0.00 | 0.00 | 0.00 | 50 | 1023.5 |
| 20260504031516 | 10 | 124 | 3.2 | 9.7 | 0.00 | 0.00 | 0.00 | 50 | 1023.5 |
| 20260504030533 | 11 | 162 | 4.8 | 8.0 | 0.00 | 0.00 | 0.00 | 60 | 1021.2 |
| 20260504030531 | 10 | 139 | 6.4 | 9.7 | 0.00 | 0.00 | 0.00 | 63 | 1023.5 |
| 20260504025529 | 11 | 142 | 6.4 | 8.0 | 0.00 | 0.00 | 0.00 | 60 | 1021.3 |
| 20260504025527 | 9 | 147 | 3.2 | 6.4 | 0.00 | 0.00 | 0.00 | 65 | 1023.7 |
| 20260504024546 | 11 | 155 | 4.8 | 8.0 | 0.00 | 0.00 | 0.00 | 61 | 1021.3 |
| 20260504024523 | 10 | 99 | 1.6 | 4.8 | 0.00 | 0.00 | 0.00 | 61 | 1023.7 |
| 20260504023522 | 11 | 143 | 6.4 | 9.7 | 0.00 | 0.00 | 0.00 | 60 | 1021.5 |
| 20260504023519 | 10 | 75 | 1.6 | 4.8 | 0.00 | 0.00 | 0.00 | 66 | 1023.7 |
| 20260504022534 | 10 | 73 | 3.2 | 4.8 | 0.00 | 0.00 | 0.00 | 60 | 1023.8 |
| 20260504022518 | 11 | 144 | 4.8 | 8.0 | 0.00 | 0.00 | 0.00 | 60 | 1021.5 |
| 20260504021610 | 10 | 81 | 3.2 | 4.8 | 0.00 | 0.00 | 0.00 | 63 | 1023.8 |
| 20260504021535 | 12 | 135 | 4.8 | 6.4 | 0.00 | 0.00 | 0.00 | 60 | 1021.5 |
| 20260504020531 | 12 | 122 | 3.2 | 6.4 | 0.00 | 0.00 | 0.00 | 61 | 1021.5 |
| 20260504020526 | 9 | 95 | 1.6 | 4.8 | 0.00 | 0.00 | 0.00 | 71 | 1023.9 |
| 20260504015702 | 8 | 103 | 1.6 | 3.2 | 0.00 | 0.00 | 0.00 | 80 | 1023.9 |
| 20260504015528 | 12 | 120 | 3.2 | 4.8 | 0.00 | 0.00 | 0.00 | 63 | 1021.6 |
| 20260504014524 | 12 | 90 | 1.6 | 3.2 | 0.00 | 0.00 | 0.00 | 64 | 1021.5 |
| 20260504014517 | 8 | 104 | 1.6 | 3.2 | 0.00 | 0.00 | 0.00 | 83 | 1024.0 |
| 20260504013533 | 9 | 100 | 0.0 | 1.6 | 0.00 | 0.00 | 0.00 | 81 | 1023.9 |
| 20260504013520 | 12 | 84 | 3.2 | 4.8 | 0.00 | 0.00 | 0.00 | 64 | 1021.5 |
| 20260504012529 | 9 | 78 | 1.6 | 3.2 | 0.00 | 0.00 | 0.00 | 85 | 1023.9 |
| 20260504012517 | 11 | 120 | 3.2 | 4.8 | 0.00 | 0.00 | 0.00 | 66 | 1021.6 |
| 20260504011533 | 12 | 132 | 4.8 | 6.4 | 0.00 | 0.00 | 0.00 | 66 | 1021.4 |
| 20260504011524 | 9 | 104 | 1.6 | 3.2 | 0.00 | 0.00 | 0.00 | 85 | 1023.8 |
| 20260504010530 | 12 | 116 | 3.2 | 4.8 | 0.00 | 0.00 | 0.00 | 66 | 1021.5 |
| 20260504010520 | 9 | 103 | 3.2 | 4.8 | 0.00 | 0.00 | 0.00 | 85 | 1023.8 |
| 20260504005526 | 11 | 129 | 4.8 | 6.4 | 0.00 | 0.00 | 0.00 | 65 | 1021.5 |
| 20260504005516 | 9 | 102 | 3.2 | 4.8 | 0.00 | 0.00 | 0.00 | 84 | 1023.9 |
| 20260504004532 | 9 | 89 | 1.6 | 6.4 | 0.00 | 0.00 | 0.00 | 84 | 1023.8 |
| 20260504004522 | 11 | 136 | 3.2 | 4.8 | 0.00 | 0.00 | 0.00 | 64 | 1021.6 |
| 20260504003527 | 9 | 80 | 1.6 | 3.2 | 0.00 | 0.00 | 0.00 | 83 | 1023.8 |
| 20260504003519 | 11 | 144 | 4.8 | 8.0 | 0.00 | 0.00 | 0.00 | 64 | 1021.5 |
| 20260504002543 | 10 | 80 | 0.0 | 3.2 | 0.00 | 0.00 | 0.00 | 84 | 1023.9 |
| 20260504002515 | 11 | 143 | 6.4 | 8.0 | 0.00 | 0.00 | 0.00 | 63 | 1021.8 |
| 20260504001532 | 11 | 130 | 4.8 | 6.4 | 0.00 | 0.00 | 0.00 | 59 | 1021.7 |
| 20260504001519 | 10 | 43 | 0.0 | 3.2 | 0.00 | 0.00 | 0.00 | 83 | 1024.0 |
| 20260504000535 | 10 | 50 | 0.0 | 3.2 | 0.00 | 0.00 | 0.00 | 82 | 1024.1 |
| 20260504000528 | 11 | 126 | 4.8 | 6.4 | 0.00 | 0.00 | 0.00 | 54 | 1021.8 |
| 20260503235645 | 11 | 129 | 4.8 | 6.4 | 0.00 | 0.00 | 0.00 | 55 | 1021.7 |
| 20260503235530 | 9 | 73 | 1.6 | 3.2 | 0.00 | 0.00 | 0.00 | 82 | 1024.0 |
| 20260503234527 | 9 | 45 | 1.6 | 3.2 | 0.00 | 0.00 | 0.00 | 81 | 1024.2 |
| 20260503234521 | 11 | 138 | 4.8 | 8.0 | 0.00 | 0.00 | 0.00 | 58 | 1022.0 |
| 20260503233523 | 9 | 70 | 1.6 | 3.2 | 0.00 | 0.00 | 0.00 | 82 | 1024.2 |
| 20260503233518 | 11 | 145 | 3.2 | 4.8 | 0.00 | 0.00 | 0.00 | 51 | 1022.0 |
| 20260503232534 | 11 | 175 | 1.6 | 4.8 | 0.00 | 0.00 | 0.00 | 48 | 1022.2 |
| 20260503232519 | 9 | 57 | 1.6 | 3.2 | 0.00 | 0.00 | 0.00 | 82 | 1024.4 |
| 20260503231554 | 10 | 46 | 1.6 | 3.2 | 0.00 | 0.00 | 0.00 | 81 | 1024.5 |
| 20260503231530 | 11 | 127 | 3.2 | 6.4 | 0.00 | 0.00 | 0.00 | 56 | 1022.2 |
| 20260503230530 | 9 | 219 | 0.0 | 3.2 | 0.00 | 0.00 | 0.00 | 79 | 1024.6 |
| 20260503230527 | 11 | 113 | 3.2 | 6.4 | 0.00 | 0.00 | 0.00 | 60 | 1022.3 |
| 20260503225606 | 9 | 236 | 0.0 | 3.2 | 0.00 | 0.00 | 0.00 | 80 | 1024.5 |
| 20260503225523 | 11 | 124 | 3.2 | 4.8 | 0.00 | 0.00 | 0.00 | 61 | 1022.4 |
| 20260503224521 | 9 | 71 | 1.6 | 3.2 | 0.00 | 0.00 | 0.00 | 81 | 1024.7 |
| 20260503223538 | 10 | 68 | 1.6 | 4.8 | 0.00 | 0.00 | 0.00 | 81 | 1024.6 |
| 20260503223516 | 11 | 168 | 0.0 | 3.2 | 0.00 | 0.00 | 0.00 | 60 | 1022.6 |
| 20260503222534 | 10 | 3 | 1.6 | 4.8 | 0.00 | 0.00 | 0.00 | 80 | 1024.6 |
| 20260503221609 | 11 | 75 | 1.6 | 4.8 | 0.00 | 0.00 | 0.00 | 71 | 1022.4 |
| 20260503221530 | 10 | 325 | 1.6 | 4.8 | 0.00 | 0.00 | 0.00 | 79 | 1024.7 |
| 20260503220546 | 10 | 223 | 1.6 | 3.2 | 0.00 | 0.00 | 0.00 | 80 | 1024.7 |
| 20260503220525 | 11 | 91 | 3.2 | 4.8 | 0.00 | 0.00 | 0.00 | 70 | 1022.4 |
| 20260503215541 | 9 | 92 | 1.6 | 3.2 | 0.00 | 0.00 | 0.00 | 82 | 1024.5 |
| 20260503215522 | 11 | 76 | 1.6 | 3.2 | 0.00 | 0.00 | 0.00 | 70 | 1022.3 |
| 20260503214539 | 11 | 83 | 1.6 | 3.2 | 0.00 | 0.00 | 0.00 | 69 | 1022.2 |
| 20260503214517 | 10 | 71 | 1.6 | 3.2 | 0.00 | 0.00 | 0.00 | 82 | 1024.4 |
| 20260503213614 | 10 | 276 | 0.0 | 3.2 | 0.00 | 0.00 | 0.00 | 81 | 1024.4 |
| 20260503213535 | 11 | 83 | 3.2 | 4.8 | 0.00 | 0.00 | 0.00 | 70 | 1022.3 |
| 20260503212531 | 11 | 80 | 1.6 | 3.2 | 0.00 | 0.00 | 0.00 | 74 | 1022.3 |
| 20260503212529 | 9 | 0.0 | 1.6 | 0.00 | 0.00 | 0.00 | 83 | 1024.3 | |
| 20260503211528 | 11 | 72 | 1.6 | 4.8 | 0.00 | 0.00 | 0.00 | 72 | 1022.2 |
| 20260503211525 | 8 | 260 | 1.6 | 3.2 | 0.00 | 0.00 | 0.00 | 87 | 1024.3 |
| 20260503210604 | 12 | 66 | 0.0 | 3.2 | 0.00 | 0.00 | 0.00 | 70 | 1022.1 |
| 20260503210521 | 8 | 262 | 3.2 | 8.0 | 0.00 | 0.00 | 0.00 | 85 | 1024.3 |
| 20260503205521 | 12 | 70 | 3.2 | 6.4 | 0.00 | 0.00 | 0.00 | 70 | 1022.0 |
| 20260503205517 | 9 | 139 | 1.6 | 4.8 | 0.00 | 0.00 | 0.00 | 83 | 1024.4 |
| 20260503204534 | 9 | 357 | 0.0 | 3.2 | 0.00 | 0.00 | 0.00 | 82 | 1024.3 |
| 20260503204517 | 11 | 93 | 1.6 | 3.2 | 0.00 | 0.00 | 0.00 | 72 | 1022.1 |
| 20260503203549 | 10 | 329 | 1.6 | 6.4 | 0.00 | 0.00 | 0.00 | 82 | 1024.3 |
| 20260503203534 | 12 | 90 | 1.6 | 4.8 | 0.00 | 0.00 | 0.00 | 74 | 1022.0 |
| 20260503202610 | 12 | 78 | 3.2 | 4.8 | 0.00 | 0.00 | 0.00 | 75 | 1022.1 |
| 20260503202525 | 10 | 356 | 1.6 | 4.8 | 0.00 | 0.00 | 0.00 | 79 | 1024.3 |
| 20260503201526 | 11 | 79 | 3.2 | 4.8 | 0.00 | 0.00 | 0.00 | 76 | 1022.0 |
| 20260503201521 | 10 | 302 | 1.6 | 4.8 | 0.00 | 0.00 | 0.00 | 81 | 1024.4 |
| 20260503200523 | 12 | 84 | 1.6 | 3.2 | 0.00 | 0.00 | 0.00 | 75 | 1022.1 |
| 20260503200518 | 10 | 296 | 1.6 | 4.8 | 0.00 | 0.00 | 0.00 | 83 | 1024.3 |
| 20260503195553 | 10 | 322 | 1.6 | 4.8 | 0.00 | 0.00 | 0.00 | 83 | 1024.3 |
| 20260503195519 | 12 | 63 | 1.6 | 3.2 | 0.00 | 0.00 | 0.00 | 74 | 1022.0 |
| 20260503194550 | 10 | 234 | 1.6 | 8.0 | 0.00 | 0.00 | 0.00 | 82 | 1024.3 |
| 20260503194516 | 12 | 93 | 1.6 | 3.2 | 0.00 | 0.00 | 0.00 | 73 | 1022.0 |
| 20260503193525 | 10 | 0 | 1.6 | 6.4 | 0.00 | 0.00 | 0.00 | 82 | 1024.2 |
| 20260503192529 | 12 | 86 | 1.6 | 3.2 | 0.00 | 0.00 | 0.00 | 73 | 1021.9 |
| 20260503192521 | 10 | 176 | 1.6 | 4.8 | 0.00 | 0.00 | 0.00 | 83 | 1024.1 |
| 20260503191525 | 12 | 84 | 3.2 | 4.8 | 0.00 | 0.00 | 0.00 | 73 | 1021.8 |
| 20260503191517 | 9 | 125 | 3.2 | 6.4 | 0.00 | 0.00 | 0.00 | 87 | 1024.1 |
| 20260503190533 | 8 | 179 | 1.6 | 6.4 | 0.00 | 0.00 | 0.00 | 91 | 1024.0 |
| 20260503190521 | 12 | 124 | 3.2 | 6.4 | 0.00 | 0.00 | 0.00 | 75 | 1021.6 |
| 20260503185549 | 8 | 231 | 4.8 | 9.7 | 0.00 | 0.00 | 0.00 | 92 | 1023.9 |
| 20260503185518 | 12 | 159 | 3.2 | 6.4 | 0.00 | 0.00 | 0.00 | 78 | 1021.6 |
| 20260503184545 | 8 | 187 | 3.2 | 8.0 | 0.00 | 0.00 | 0.00 | 90 | 1023.9 |
| 20260503184534 | 11 | 166 | 4.8 | 9.7 | 0.00 | 0.00 | 0.00 | 79 | 1021.5 |
| 20260503183531 | 12 | 170 | 6.4 | 9.7 | 0.00 | 0.00 | 0.00 | 78 | 1021.3 |
| 20260503183521 | 8 | 228 | 4.8 | 12.9 | 0.00 | 0.00 | 0.00 | 90 | 1023.8 |
| 20260503182537 | 8 | 223 | 4.8 | 14.5 | 0.00 | 0.00 | 0.00 | 88 | 1023.7 |
| 20260503182527 | 12 | 172 | 8.0 | 12.9 | 0.00 | 0.00 | 0.00 | 76 | 1021.2 |
| 20260503181533 | 9 | 168 | 3.2 | 8.0 | 0.00 | 0.00 | 0.00 | 86 | 1023.8 |
| 20260503181523 | 12 | 173 | 9.7 | 14.5 | 0.00 | 0.00 | 0.00 | 75 | 1021.1 |
| 20260503180528 | 9 | 135 | 1.6 | 4.8 | 0.00 | 0.00 | 0.00 | 85 | 1023.7 |
| 20260503180520 | 12 | 173 | 11.3 | 19.3 | 0.00 | 0.00 | 0.00 | 74 | 1021.1 |
| 20260503175524 | 10 | 222 | 3.2 | 8.0 | 0.00 | 0.00 | 0.00 | 82 | 1023.6 |
| 20260503175516 | 13 | 165 | 8.0 | 14.5 | 0.00 | 0.00 | 0.00 | 71 | 1021.0 |
| 20260503174533 | 14 | 168 | 6.4 | 9.7 | 0.00 | 0.00 | 0.00 | 66 | 1021.0 |
| 20260503174520 | 11 | 16 | 3.2 | 8.0 | 0.00 | 0.00 | 0.00 | 79 | 1023.6 |
| 20260503173529 | 14 | 160 | 4.8 | 6.4 | 0.00 | 0.00 | 0.00 | 65 | 1020.9 |
| 20260503173516 | 11 | 3 | 3.2 | 8.0 | 0.00 | 0.00 | 0.00 | 79 | 1023.5 |
| 20260503172532 | 11 | 353 | 3.2 | 12.9 | 0.00 | 0.00 | 0.00 | 80 | 1023.5 |
| 20260503172526 | 15 | 141 | 1.6 | 6.4 | 0.00 | 0.00 | 0.00 | 64 | 1020.8 |
| 20260503171547 | 15 | 157 | 1.6 | 4.8 | 0.00 | 0.00 | 0.00 | 62 | 1020.8 |
| 20260503171528 | 11 | 9 | 3.2 | 6.4 | 0.00 | 0.00 | 0.00 | 78 | 1023.5 |
| 20260503170538 | 15 | 191 | 3.2 | 3.2 | 0.00 | 0.00 | 0.00 | 61 | 1020.8 |
| 20260503170524 | 11 | 6 | 3.2 | 8.0 | 0.00 | 0.00 | 0.00 | 79 | 1023.5 |
| 20260503150553 | 13 | 160 | 8.0 | 17.7 | 0.00 | 0.00 | 0.00 | 71 | 1024.2 |
| 20260503150516 | 19 | 104 | 1.6 | 6.4 | 0.00 | 0.00 | 0.00 | 50 | 1021.6 |
| 20260503130613 | 17 | 172 | 3.2 | 9.7 | 0.00 | 0.00 | 0.00 | 53 | 1022.4 |
| 20260503130524 | 13 | 214 | 6.4 | 20.9 | 0.00 | 0.00 | 0.00 | 67 | 1024.8 |
| 20260503110534 | 14 | 249 | 4.8 | 11.3 | 0.00 | 0.00 | 0.00 | 68 | 1025.2 |
| 20260503110529 | 18 | 6 | 3.2 | 9.7 | 0.00 | 0.00 | 0.00 | 46 | 1022.4 |
| 20260503081545 | 13 | 130 | 3.2 | 11.3 | 0.00 | 0.00 | 0.00 | 60 | 1025.5 |
| 20260503081528 | 15 | 61 | 3.2 | 9.7 | 0.00 | 0.00 | 0.00 | 54 | 1023.3 |
| 20260503080524 | 15 | 54 | 1.6 | 4.8 | 0.00 | 0.00 | 0.00 | 54 | 1023.3 |
| 20260503080521 | 13 | 177 | 3.2 | 9.7 | 0.00 | 0.00 | 0.00 | 62 | 1025.6 |
| 20260503072530 | 14 | 116 | 1.6 | 4.8 | 0.00 | 0.00 | 0.00 | 52 | 1023.3 |
| 20260503072524 | 12 | 133 | 4.8 | 9.7 | 0.00 | 0.00 | 0.00 | 64 | 1025.5 |
| 20260503071527 | 13 | 343 | 0.0 | 3.2 | 0.00 | 0.00 | 0.00 | 54 | 1023.4 |
| 20260503071520 | 12 | 125 | 4.8 | 11.3 | 0.00 | 0.00 | 0.00 | 63 | 1025.5 |
| 20260503070523 | 13 | 58 | 1.6 | 4.8 | 0.00 | 0.00 | 0.00 | 53 | 1023.3 |
| 20260503070516 | 12 | 124 | 3.2 | 9.7 | 0.00 | 0.00 | 0.00 | 61 | 1025.4 |
| 20260503054535 | 11 | 119 | 3.2 | 6.4 | 0.00 | 0.00 | 0.00 | 61 | 1023.1 |
| 20260503054523 | 11 | 85 | 4.8 | 11.3 | 0.00 | 0.00 | 0.00 | 65 | 1024.9 |
| 20260503053531 | 11 | 147 | 4.8 | 9.7 | 0.00 | 0.00 | 0.00 | 60 | 1023.1 |
| 20260503053520 | 10 | 133 | 4.8 | 17.7 | 0.00 | 0.00 | 0.00 | 66 | 1024.9 |
| 20260503052527 | 11 | 97 | 4.8 | 8.0 | 0.00 | 0.00 | 0.00 | 60 | 1023.0 |
| 20260503052515 | 10 | 44 | 3.2 | 11.3 | 0.00 | 0.00 | 0.00 | 66 | 1024.9 |
| 20260503051531 | 10 | 80 | 4.8 | 9.7 | 0.00 | 0.00 | 0.00 | 65 | 1024.7 |
| 20260503051524 | 11 | 92 | 1.6 | 6.4 | 0.00 | 0.00 | 0.00 | 63 | 1023.1 |
| 20260503050540 | 10 | 87 | 1.6 | 6.4 | 0.00 | 0.00 | 0.00 | 64 | 1023.1 |
| 20260503050527 | 9 | 106 | 9.7 | 16.1 | 0.00 | 0.00 | 0.00 | 68 | 1024.5 |
| 20260503045523 | 8 | 131 | 6.4 | 11.3 | 0.00 | 0.00 | 0.00 | 74 | 1024.6 |
| 20260503045517 | 10 | 1 | 3.2 | 8.0 | 0.00 | 0.00 | 0.00 | 63 | 1023.1 |
| 20260503044539 | 7 | 139 | 4.8 | 9.7 | 0.00 | 0.00 | 0.00 | 78 | 1024.6 |
| 20260503044533 | 10 | 315 | 3.2 | 6.4 | 0.00 | 0.00 | 0.00 | 63 | 1023.0 |
| 20260503043555 | 7 | 148 | 3.2 | 11.3 | 0.00 | 0.00 | 0.00 | 79 | 1024.5 |
| 20260503043529 | 10 | 2 | 3.2 | 6.4 | 0.00 | 0.00 | 0.00 | 62 | 1023.0 |
| 20260503042531 | 6 | 177 | 6.4 | 14.5 | 0.00 | 0.00 | 0.00 | 81 | 1024.5 |
| 20260503042526 | 10 | 75 | 3.2 | 8.0 | 0.00 | 0.00 | 0.00 | 60 | 1022.8 |
| 20260503041526 | 6 | 141 | 4.8 | 9.7 | 0.00 | 0.00 | 0.00 | 77 | 1024.4 |
| 20260503041522 | 10 | 162 | 1.6 | 6.4 | 0.00 | 0.00 | 0.00 | 60 | 1022.8 |
| 20260503040543 | 6 | 135 | 4.8 | 12.9 | 0.00 | 0.00 | 0.00 | 77 | 1024.3 |
| 20260503040519 | 10 | 167 | 3.2 | 6.4 | 0.00 | 0.00 | 0.00 | 59 | 1022.8 |
| 20260503035535 | 10 | 192 | 3.2 | 6.4 | 0.00 | 0.00 | 0.00 | 59 | 1022.6 |
| 20260503035518 | 6 | 147 | 4.8 | 12.9 | 0.00 | 0.00 | 0.00 | 76 | 1024.4 |
| 20260503034534 | 7 | 141 | 6.4 | 14.5 | 0.00 | 0.00 | 0.00 | 75 | 1024.3 |
| 20260503034532 | 10 | 21 | 3.2 | 6.4 | 0.00 | 0.00 | 0.00 | 57 | 1022.5 |